Time,TemperatureF,DewpointF,PressureIn,WindDirection,WindDirectionDegrees,WindSpeedMPH,WindSpeedGustMPH,Humidity,HourlyPrecipIn,Conditions,Clouds,dailyrainin,SolarRadiationWatts/m^2,SoftwareType,DateUTC
2013-10-07 00:00:00,55.4,49.0,29.90,SSW,210,5.0,12.0,79,0.01,,---,0.01,0.00,VWS V14.01,2013-10-07 07:00:00,
2013-10-07 00:01:00,55.0,49.0,29.90,WSW,248,6.0,13.0,80,0.01,,---,0.00,0.00,VWS V14.01,2013-10-07 07:01:00,
2013-10-07 00:06:00,54.6,48.9,29.90,SSW,210,6.0,13.0,81,0.02,,---,0.01,0.00,VWS V14.01,2013-10-07 07:06:00,
2013-10-07 00:11:00,54.4,49.0,29.89,SW,219,7.0,14.0,82,0.03,,---,0.02,0.00,VWS V14.01,2013-10-07 07:11:00,
2013-10-07 00:16:00,54.1,49.1,29.89,SW,236,8.0,14.0,83,0.04,,---,0.04,0.00,VWS V14.01,2013-10-07 07:16:00,
2013-10-07 00:21:00,53.8,49.1,29.89,SW,221,10.0,14.0,84,0.06,,---,0.05,0.00,VWS V14.01,2013-10-07 07:21:00,
2013-10-07 00:26:00,53.6,49.2,29.89,SW,218,10.0,10.0,85,0.07,,---,0.06,0.00,VWS V14.01,2013-10-07 07:26:00,
2013-10-07 00:30:00,53.7,49.3,29.89,SSW,210,7.0,18.0,85,0.07,,---,0.06,0.00,VWS V14.01,2013-10-07 07:30:00,
2013-10-07 00:31:00,53.5,49.1,29.89,SSW,211,8.0,15.0,85,0.08,,---,0.07,0.00,VWS V14.01,2013-10-07 07:31:00,
2013-10-07 00:36:00,53.3,48.9,29.89,SSW,207,8.0,15.0,85,0.08,,---,0.07,0.00,VWS V14.01,2013-10-07 07:36:00,
2013-10-07 00:41:00,53.2,49.1,29.89,SSW,198,12.0,15.0,86,0.08,,---,0.07,0.00,VWS V14.01,2013-10-07 07:41:00,
2013-10-07 00:46:00,53.1,49.0,29.89,SW,220,5.0,20.0,86,0.09,,---,0.08,0.00,VWS V14.01,2013-10-07 07:46:00,
2013-10-07 00:51:00,53.0,48.9,29.89,SSW,204,5.0,20.0,86,0.09,,---,0.08,0.00,VWS V14.01,2013-10-07 07:51:00,
2013-10-07 00:56:00,52.9,48.8,29.89,WSW,247,5.0,11.0,86,0.09,,---,0.09,0.00,VWS V14.01,2013-10-07 07:56:00,
2013-10-07 01:00:00,52.9,48.8,29.89,WSW,244,10.0,20.0,86,0.10,,---,0.09,0.00,VWS V14.01,2013-10-07 08:00:00,
2013-10-07 01:01:00,52.8,48.7,29.89,SW,218,6.0,16.0,86,0.09,,---,0.09,0.00,VWS V14.01,2013-10-07 08:01:00,
2013-10-07 01:06:00,52.7,49.0,29.90,WSW,239,9.0,23.0,87,0.09,,---,0.09,0.00,VWS V14.01,2013-10-07 08:06:00,
2013-10-07 01:11:00,52.6,48.8,29.89,SSW,204,21.0,23.0,87,0.09,,---,0.09,0.00,VWS V14.01,2013-10-07 08:11:00,
2013-10-07 01:16:00,52.6,48.8,29.90,SSW,201,9.0,23.0,87,0.09,,---,0.09,0.00,VWS V14.01,2013-10-07 08:16:00,
2013-10-07 01:21:00,52.6,48.8,29.89,SW,214,18.0,23.0,87,0.09,,---,0.09,0.00,VWS V14.01,2013-10-07 08:21:00,
2013-10-07 01:26:00,52.6,48.8,29.90,West,260,7.0,15.0,87,0.03,,---,0.09,0.00,VWS V14.01,2013-10-07 08:26:00,
2013-10-07 01:30:00,52.6,48.8,29.90,SSW,212,5.0,23.0,87,0.09,,---,0.09,0.00,VWS V14.01,2013-10-07 08:30:00,
2013-10-07 01:31:00,52.6,48.8,29.89,South,179,8.0,20.0,87,0.03,,---,0.09,0.00,VWS V14.01,2013-10-07 08:31:00,
2013-10-07 01:36:00,52.6,48.8,29.90,SSW,209,11.0,20.0,87,0.03,,---,0.09,0.00,VWS V14.01,2013-10-07 08:36:00,
2013-10-07 01:41:00,52.6,48.8,29.89,SW,228,8.0,20.0,87,0.03,,---,0.09,0.00,VWS V14.01,2013-10-07 08:41:00,
2013-10-07 01:46:00,52.6,48.8,29.89,WNW,283,5.0,24.0,87,0.03,,---,0.09,0.00,VWS V14.01,2013-10-07 08:46:00,
2013-10-07 01:51:00,52.6,48.8,29.89,SSW,197,15.0,24.0,87,0.03,,---,0.09,0.00,VWS V14.01,2013-10-07 08:51:00,
2013-10-07 01:56:00,52.6,48.8,29.89,SW,218,16.0,16.0,87,0.00,,---,0.09,0.00,VWS V14.01,2013-10-07 08:56:00,
2013-10-07 02:00:00,52.6,48.8,29.89,SW,219,10.0,24.0,87,0.03,,---,0.09,0.00,VWS V14.01,2013-10-07 09:00:00,
2013-10-07 02:01:00,52.6,48.8,29.89,SW,230,6.0,16.0,87,0.00,,---,0.09,0.00,VWS V14.01,2013-10-07 09:01:00,
2013-10-07 02:06:00,52.6,48.8,29.89,SSW,205,11.0,18.0,87,0.00,,---,0.09,0.00,VWS V14.01,2013-10-07 09:06:00,
2013-10-07 02:11:00,52.6,48.8,29.89,SW,231,10.0,18.0,87,0.00,,---,0.09,0.00,VWS V14.01,2013-10-07 09:11:00,
2013-10-07 02:16:00,52.6,48.8,29.89,South,191,5.0,21.0,87,0.00,,---,0.09,0.00,VWS V14.01,2013-10-07 09:16:00,
2013-10-07 02:21:00,52.5,48.8,29.89,SW,229,13.0,21.0,87,0.00,,---,0.09,0.00,VWS V14.01,2013-10-07 09:21:00,
2013-10-07 02:26:00,52.5,48.8,29.89,SSW,204,7.0,11.0,87,0.00,,---,0.09,0.00,VWS V14.01,2013-10-07 09:26:00,
2013-10-07 02:30:00,52.5,48.8,29.89,SSW,211,11.0,21.0,87,0.00,,---,0.09,0.00,VWS V14.01,2013-10-07 09:30:00,
2013-10-07 02:31:00,52.5,48.8,29.89,SSW,213,24.0,24.0,87,0.00,,---,0.09,0.00,VWS V14.01,2013-10-07 09:31:00,
2013-10-07 02:36:00,52.6,48.8,29.89,SSW,212,9.0,24.0,87,0.00,,---,0.09,0.00,VWS V14.01,2013-10-07 09:36:00,
2013-10-07 02:41:00,52.5,48.8,29.89,South,183,18.0,24.0,87,0.00,,---,0.09,0.00,VWS V14.01,2013-10-07 09:41:00,
2013-10-07 02:46:00,52.5,48.8,29.89,SW,218,12.0,24.0,87,0.00,,---,0.09,0.00,VWS V14.01,2013-10-07 09:46:00,
2013-10-07 02:50:00,52.4,48.7,29.89,SSW,193,12.0,24.0,87,0.00,,---,0.09,0.00,VWS V14.01,2013-10-07 09:50:00,
2013-10-07 02:55:00,52.4,48.7,29.90,SW,216,7.0,9.0,87,0.00,,---,0.09,0.00,VWS V14.01,2013-10-07 09:55:00,
2013-10-07 03:00:00,52.4,48.7,29.89,SSW,192,9.0,16.0,87,0.00,,---,0.09,0.00,VWS V14.01,2013-10-07 10:00:00,
2013-10-07 03:05:00,52.3,48.5,29.89,SSW,203,11.0,18.0,87,0.00,,---,0.09,0.00,VWS V14.01,2013-10-07 10:05:00,
2013-10-07 03:10:00,52.3,48.5,29.89,SW,231,9.0,18.0,87,0.00,,---,0.09,0.00,VWS V14.01,2013-10-07 10:10:00,
2013-10-07 03:15:00,52.3,48.5,29.89,SW,220,0.0,18.0,87,0.00,,---,0.09,0.00,VWS V14.01,2013-10-07 10:15:00,
2013-10-07 03:20:00,52.3,48.9,29.89,SW,225,10.0,18.0,88,0.00,,---,0.09,0.00,VWS V14.01,2013-10-07 10:20:00,
2013-10-07 03:25:00,52.3,48.9,29.89,West,264,6.0,12.0,88,0.00,,---,0.09,0.00,VWS V14.01,2013-10-07 10:25:00,
2013-10-07 03:30:00,52.3,48.5,29.89,South,188,6.0,16.0,87,0.00,,---,0.09,0.00,VWS V14.01,2013-10-07 10:30:00,
2013-10-07 03:35:00,52.3,48.5,29.89,SW,218,13.0,19.0,87,0.00,,---,0.09,0.00,VWS V14.01,2013-10-07 10:35:00,
2013-10-07 03:41:00,52.3,48.5,29.89,SSW,196,10.0,19.0,87,0.00,,---,0.09,0.00,VWS V14.01,2013-10-07 10:41:00,
2013-10-07 03:46:00,52.4,48.7,29.89,SSW,206,6.0,19.0,87,0.00,,---,0.09,0.00,VWS V14.01,2013-10-07 10:46:00,
2013-10-07 03:51:00,52.3,48.5,29.89,SW,220,9.0,19.0,87,0.00,,---,0.09,0.00,VWS V14.01,2013-10-07 10:51:00,
2013-10-07 03:56:00,52.3,48.5,29.89,SW,214,6.0,12.0,87,0.00,,---,0.09,0.00,VWS V14.01,2013-10-07 10:56:00,
2013-10-07 04:00:00,52.3,48.5,29.89,SSW,200,11.0,19.0,87,0.00,,---,0.09,0.00,VWS V14.01,2013-10-07 11:00:00,
2013-10-07 04:01:00,52.3,48.5,29.89,SSW,205,11.0,14.0,87,0.00,,---,0.09,0.00,VWS V14.01,2013-10-07 11:01:00,
2013-10-07 04:06:00,52.3,48.5,29.89,SW,214,8.0,16.0,87,0.00,,---,0.09,0.00,VWS V14.01,2013-10-07 11:06:00,
2013-10-07 04:11:00,52.3,48.5,29.89,SW,214,11.0,19.0,87,0.00,,---,0.09,0.00,VWS V14.01,2013-10-07 11:11:00,
2013-10-07 04:16:00,52.3,48.5,29.89,SW,223,12.0,19.0,87,0.00,,---,0.09,0.00,VWS V14.01,2013-10-07 11:16:00,
2013-10-07 04:21:00,52.3,48.5,29.89,SSW,210,8.0,19.0,87,0.00,,---,0.09,0.00,VWS V14.01,2013-10-07 11:21:00,
2013-10-07 04:26:00,52.3,48.5,29.89,SSW,200,4.0,8.0,87,0.00,,---,0.09,0.00,VWS V14.01,2013-10-07 11:26:00,
2013-10-07 04:30:00,52.3,48.5,29.89,South,181,7.0,19.0,87,0.00,,---,0.09,0.00,VWS V14.01,2013-10-07 11:30:00,
2013-10-07 04:31:00,52.3,48.5,29.89,SSW,204,9.0,18.0,87,0.00,,---,0.09,0.00,VWS V14.01,2013-10-07 11:31:00,
2013-10-07 04:36:00,52.3,48.5,29.89,SW,214,11.0,18.0,87,0.00,,---,0.09,0.00,VWS V14.01,2013-10-07 11:36:00,
2013-10-07 04:40:00,52.3,48.5,29.89,South,187,3.0,18.0,87,0.00,,---,0.09,0.00,VWS V14.01,2013-10-07 11:40:00,
2013-10-07 04:45:00,52.3,48.5,29.89,SSW,210,8.0,18.0,87,0.00,,---,0.09,0.00,VWS V14.01,2013-10-07 11:45:00,
2013-10-07 04:50:00,52.4,48.7,29.89,SW,220,8.0,18.0,87,0.00,,---,0.09,0.00,VWS V14.01,2013-10-07 11:50:00,
2013-10-07 04:55:00,52.4,48.7,29.89,SSW,204,6.0,6.0,87,0.00,,---,0.09,0.00,VWS V14.01,2013-10-07 11:55:00,
2013-10-07 05:00:00,52.4,48.7,29.89,SSW,199,9.0,15.0,87,0.00,,---,0.09,0.00,VWS V14.01,2013-10-07 12:00:00,
2013-10-07 05:05:00,52.5,48.4,29.89,SSW,207,7.0,15.0,86,0.00,,---,0.09,0.00,VWS V14.01,2013-10-07 12:05:00,
2013-10-07 05:10:00,52.5,48.8,29.89,SSW,194,7.0,15.0,87,0.00,,---,0.09,0.00,VWS V14.01,2013-10-07 12:10:00,
2013-10-07 05:15:00,52.6,48.5,29.90,SW,220,4.0,15.0,86,0.00,,---,0.09,0.00,VWS V14.01,2013-10-07 12:15:00,
2013-10-07 05:20:00,52.6,48.5,29.89,SSW,201,8.0,15.0,86,0.00,,---,0.09,0.00,VWS V14.01,2013-10-07 12:20:00,
2013-10-07 05:25:00,52.6,48.5,29.89,SSW,201,6.0,6.0,86,0.00,,---,0.09,0.00,VWS V14.01,2013-10-07 12:25:00,
2013-10-07 05:30:00,52.6,48.5,29.89,SW,221,5.0,13.0,86,0.00,,---,0.09,0.00,VWS V14.01,2013-10-07 12:30:00,
2013-10-07 05:35:00,52.5,48.4,29.89,SSW,199,5.0,13.0,86,0.00,,---,0.09,0.00,VWS V14.01,2013-10-07 12:35:00,
2013-10-07 05:40:00,52.4,48.3,29.89,South,191,2.0,14.0,86,0.00,,---,0.09,0.00,VWS V14.01,2013-10-07 12:40:00,
2013-10-07 05:45:00,52.3,48.2,29.89,SSW,210,1.0,14.0,86,0.00,,---,0.09,0.00,VWS V14.01,2013-10-07 12:45:00,
2013-10-07 05:50:00,52.3,48.2,29.89,SW,216,7.0,14.0,86,0.00,,---,0.09,0.00,VWS V14.01,2013-10-07 12:50:00,
2013-10-07 05:55:00,52.2,48.2,29.90,SSW,203,8.0,9.0,86,0.00,,---,0.09,0.00,VWS V14.01,2013-10-07 12:55:00,
2013-10-07 06:00:00,52.3,48.2,29.89,SSW,204,8.0,11.0,86,0.00,,---,0.09,0.00,VWS V14.01,2013-10-07 13:00:00,
2013-10-07 06:05:00,52.3,48.2,29.90,SW,219,0.0,11.0,86,0.00,,---,0.09,0.00,VWS V14.01,2013-10-07 13:05:00,
2013-10-07 06:10:00,52.3,48.2,29.90,SSW,204,8.0,13.0,86,0.00,,---,0.09,0.00,VWS V14.01,2013-10-07 13:10:00,
2013-10-07 06:15:00,52.3,48.2,29.90,SSW,207,7.0,13.0,86,0.00,,---,0.09,0.00,VWS V14.01,2013-10-07 13:15:00,
2013-10-07 06:20:00,52.4,48.3,29.90,SSW,205,10.0,15.0,86,0.00,,---,0.09,0.00,VWS V14.01,2013-10-07 13:20:00,
2013-10-07 06:25:00,52.4,48.0,29.90,SW,216,6.0,15.0,85,0.00,,---,0.09,0.00,VWS V14.01,2013-10-07 13:25:00,
2013-10-07 06:30:00,52.4,48.0,29.89,SSW,197,12.0,14.0,85,0.00,,---,0.09,0.00,VWS V14.01,2013-10-07 13:30:00,
2013-10-07 06:35:00,52.4,48.0,29.90,South,190,8.0,15.0,85,0.00,,---,0.09,0.00,VWS V14.01,2013-10-07 13:35:00,
2013-10-07 06:40:00,52.5,48.1,29.90,SW,231,14.0,18.0,85,0.00,,---,0.09,0.00,VWS V14.01,2013-10-07 13:40:00,
2013-10-07 06:45:00,52.5,48.1,29.89,SW,229,9.0,18.0,85,0.00,,---,0.09,0.00,VWS V14.01,2013-10-07 13:45:00,
2013-10-07 06:50:00,52.6,48.2,29.90,SW,217,9.0,18.0,85,0.00,,---,0.09,0.00,VWS V14.01,2013-10-07 13:50:00,
2013-10-07 06:55:00,52.7,48.0,29.90,SW,218,11.0,18.0,84,0.00,,---,0.09,0.00,VWS V14.01,2013-10-07 13:55:00,
2013-10-07 07:00:00,52.7,48.0,29.89,SW,228,7.0,12.0,84,0.00,,---,0.09,0.00,VWS V14.01,2013-10-07 14:00:00,
2013-10-07 07:05:00,52.7,48.0,29.90,SSW,205,7.0,18.0,84,0.00,,---,0.09,0.00,VWS V14.01,2013-10-07 14:05:00,
2013-10-07 07:10:00,52.8,48.1,29.90,SW,228,5.0,18.0,84,0.00,,---,0.09,0.00,VWS V14.01,2013-10-07 14:10:00,
2013-10-07 07:15:00,52.8,47.8,29.90,South,191,10.0,18.0,83,0.00,,---,0.09,0.00,VWS V14.01,2013-10-07 14:15:00,
2013-10-07 07:20:00,52.8,47.8,29.89,SSW,206,6.0,18.0,83,0.00,,---,0.09,0.00,VWS V14.01,2013-10-07 14:20:00,
2013-10-07 07:25:00,52.8,47.8,29.90,SSW,193,5.0,18.0,83,0.00,,---,0.09,0.00,VWS V14.01,2013-10-07 14:25:00,
2013-10-07 07:30:00,52.8,47.8,29.90,SSW,204,4.0,13.0,83,0.00,,---,0.09,0.00,VWS V14.01,2013-10-07 14:30:00,
2013-10-07 07:35:00,52.8,48.1,29.90,SSW,207,5.0,13.0,84,0.00,,---,0.09,5.00,VWS V14.01,2013-10-07 14:35:00,
2013-10-07 07:40:00,52.8,48.1,29.90,SSW,205,6.0,14.0,84,0.00,,---,0.09,7.00,VWS V14.01,2013-10-07 14:40:00,
2013-10-07 07:45:00,52.8,48.1,29.90,SSW,212,4.0,14.0,84,0.00,,---,0.09,9.00,VWS V14.01,2013-10-07 14:45:00,
2013-10-07 07:50:00,52.8,48.1,29.90,SW,229,12.0,14.0,84,0.00,,---,0.09,5.00,VWS V14.01,2013-10-07 14:50:00,
2013-10-07 07:55:00,52.8,48.1,29.90,SSW,208,1.0,14.0,84,0.00,,---,0.09,0.00,VWS V14.01,2013-10-07 14:55:00,
2013-10-07 08:00:00,52.8,48.1,29.90,SW,217,5.0,12.0,84,0.00,,---,0.09,0.00,VWS V14.01,2013-10-07 15:00:00,
2013-10-07 08:06:00,52.8,48.1,29.90,SSW,192,8.0,13.0,84,0.00,,---,0.09,7.00,VWS V14.01,2013-10-07 15:06:00,
2013-10-07 08:10:00,52.8,48.1,29.91,SW,218,9.0,13.0,84,0.00,,---,0.09,7.00,VWS V14.01,2013-10-07 15:10:00,
2013-10-07 08:15:00,52.9,48.2,29.91,SSW,208,6.0,13.0,84,0.00,,---,0.09,9.00,VWS V14.01,2013-10-07 15:15:00,
2013-10-07 08:20:00,53.0,48.3,29.91,WSW,256,11.0,14.0,84,0.00,,---,0.09,11.00,VWS V14.01,2013-10-07 15:20:00,
2013-10-07 08:25:00,53.0,48.0,29.90,SSW,206,5.0,5.0,83,0.00,,---,0.09,11.00,VWS V14.01,2013-10-07 15:25:00,
2013-10-07 08:30:00,53.1,48.1,29.91,SW,219,6.0,13.0,83,0.00,,---,0.09,18.00,VWS V14.01,2013-10-07 15:30:00,
2013-10-07 08:35:00,53.1,48.1,29.91,SSW,212,2.0,14.0,83,0.00,,---,0.09,19.00,VWS V14.01,2013-10-07 15:35:00,
2013-10-07 08:40:00,53.2,48.2,29.91,SW,223,6.0,14.0,83,0.00,,---,0.09,23.00,VWS V14.01,2013-10-07 15:40:00,
2013-10-07 08:45:00,53.2,48.2,29.91,WSW,245,3.0,16.0,83,0.00,,---,0.09,30.00,VWS V14.01,2013-10-07 15:45:00,
2013-10-07 08:50:00,53.3,48.3,29.91,WSW,252,7.0,16.0,83,0.00,,---,0.09,28.00,VWS V14.01,2013-10-07 15:50:00,
2013-10-07 08:55:00,53.4,48.4,29.91,SW,229,12.0,12.0,83,0.00,,---,0.09,32.00,VWS V14.01,2013-10-07 15:55:00,
2013-10-07 09:00:00,53.5,48.5,29.91,SW,233,18.0,18.0,83,0.00,,---,0.09,46.00,VWS V14.01,2013-10-07 16:00:00,
2013-10-07 09:05:00,53.5,48.2,29.91,SW,234,7.0,18.0,82,0.00,,---,0.09,65.00,VWS V14.01,2013-10-07 16:05:00,
2013-10-07 09:10:00,53.6,48.2,29.91,West,279,7.0,18.0,82,0.00,,---,0.09,56.00,VWS V14.01,2013-10-07 16:10:00,
2013-10-07 09:15:00,53.7,48.3,29.91,SW,229,5.0,18.0,82,0.00,,---,0.09,54.00,VWS V14.01,2013-10-07 16:15:00,
2013-10-07 09:20:00,53.9,48.5,29.91,WSW,252,5.0,21.0,82,0.00,,---,0.09,70.00,VWS V14.01,2013-10-07 16:20:00,
2013-10-07 09:25:00,54.0,48.6,29.91,SW,218,9.0,21.0,82,0.00,,---,0.09,46.00,VWS V14.01,2013-10-07 16:25:00,
2013-10-07 09:30:00,54.0,48.6,29.91,SW,223,7.0,19.0,82,0.00,,---,0.09,67.00,VWS V14.01,2013-10-07 16:30:00,
2013-10-07 09:35:00,54.0,48.6,29.92,WSW,256,9.0,19.0,82,0.00,,---,0.09,21.00,VWS V14.01,2013-10-07 16:35:00,
2013-10-07 09:40:00,53.9,48.5,29.92,SSW,201,9.0,19.0,82,0.00,,---,0.09,26.00,VWS V14.01,2013-10-07 16:40:00,
2013-10-07 09:45:00,53.8,48.8,29.92,West,260,4.0,19.0,83,0.00,,---,0.09,44.00,VWS V14.01,2013-10-07 16:45:00,
2013-10-07 09:50:00,53.7,48.7,29.92,SW,217,10.0,19.0,83,0.00,,---,0.09,95.00,VWS V14.01,2013-10-07 16:50:00,
2013-10-07 09:55:00,53.8,48.8,29.92,SW,214,5.0,19.0,83,0.00,,---,0.09,74.00,VWS V14.01,2013-10-07 16:55:00,
2013-10-07 10:00:00,54.0,49.0,29.92,SSW,207,6.0,13.0,83,0.00,,---,0.09,179.00,VWS V14.01,2013-10-07 17:00:00,
2013-10-07 10:05:00,54.3,49.3,29.92,West,264,5.0,18.0,83,0.00,,---,0.09,63.00,VWS V14.01,2013-10-07 17:05:00,
2013-10-07 10:10:00,54.4,49.0,29.92,SSW,200,6.0,18.0,82,0.00,,---,0.09,35.00,VWS V14.01,2013-10-07 17:10:00,
2013-10-07 10:15:00,54.4,48.7,29.92,WSW,243,9.0,18.0,81,0.00,,---,0.09,35.00,VWS V14.01,2013-10-07 17:15:00,
2013-10-07 10:20:00,54.3,48.6,29.92,SW,218,7.0,18.0,81,0.00,,---,0.09,35.00,VWS V14.01,2013-10-07 17:20:00,
2013-10-07 10:25:00,54.2,48.5,29.93,WNW,293,13.0,18.0,81,0.00,,---,0.09,28.00,VWS V14.01,2013-10-07 17:25:00,
2013-10-07 10:30:00,54.1,48.4,29.93,WNW,285,9.0,20.0,81,0.00,,---,0.09,25.00,VWS V14.01,2013-10-07 17:30:00,
2013-10-07 10:35:00,54.0,48.6,29.93,WSW,253,8.0,20.0,82,0.00,,---,0.09,28.00,VWS V14.01,2013-10-07 17:35:00,
2013-10-07 10:40:00,53.9,48.5,29.94,SW,232,9.0,20.0,82,0.00,,---,0.09,40.00,VWS V14.01,2013-10-07 17:40:00,
2013-10-07 10:45:00,53.9,48.5,29.94,SW,232,8.0,20.0,82,0.00,,---,0.09,42.00,VWS V14.01,2013-10-07 17:45:00,
2013-10-07 10:50:00,53.9,48.5,29.93,SW,224,1.0,20.0,82,0.00,,---,0.09,63.00,VWS V14.01,2013-10-07 17:50:00,
2013-10-07 10:55:00,54.0,48.6,29.94,WSW,237,6.0,20.0,82,0.00,,---,0.09,60.00,VWS V14.01,2013-10-07 17:55:00,
2013-10-07 11:00:00,54.0,48.6,29.94,WSW,254,7.0,15.0,82,0.00,,---,0.09,77.00,VWS V14.01,2013-10-07 18:00:00,
2013-10-07 11:05:00,54.1,48.7,29.94,WSW,246,5.0,15.0,82,0.00,,---,0.09,130.00,VWS V14.01,2013-10-07 18:05:00,
2013-10-07 11:10:00,54.3,48.9,29.94,WSW,241,7.0,15.0,82,0.00,,---,0.09,65.00,VWS V14.01,2013-10-07 18:10:00,
2013-10-07 11:15:00,54.4,48.7,29.94,West,279,12.0,15.0,81,0.00,,---,0.09,86.00,VWS V14.01,2013-10-07 18:15:00,
2013-10-07 11:20:00,54.5,48.8,29.95,SW,215,8.0,15.0,81,0.00,,---,0.09,113.00,VWS V14.01,2013-10-07 18:20:00,
2013-10-07 11:25:00,54.7,48.7,29.95,West,269,7.0,15.0,80,0.00,,---,0.09,47.00,VWS V14.01,2013-10-07 18:25:00,
2013-10-07 11:30:00,54.7,48.7,29.95,SW,214,11.0,12.0,80,0.00,,---,0.09,42.00,VWS V14.01,2013-10-07 18:30:00,
2013-10-07 11:35:00,54.6,48.6,29.95,SW,217,5.0,15.0,80,0.00,,---,0.09,47.00,VWS V14.01,2013-10-07 18:35:00,
2013-10-07 11:40:00,54.6,48.6,29.95,WSW,243,8.0,15.0,80,0.00,,---,0.09,88.00,VWS V14.01,2013-10-07 18:40:00,
2013-10-07 11:45:00,54.6,48.6,29.95,SW,231,5.0,16.0,80,0.00,,---,0.09,70.00,VWS V14.01,2013-10-07 18:45:00,
2013-10-07 11:50:00,54.6,48.6,29.96,WSW,248,5.0,16.0,80,0.00,,---,0.09,69.00,VWS V14.01,2013-10-07 18:50:00,
2013-10-07 11:55:00,54.6,48.6,29.96,WSW,248,9.0,16.0,80,0.00,,---,0.09,54.00,VWS V14.01,2013-10-07 18:55:00,
2013-10-07 12:00:00,54.6,48.6,29.96,WSW,241,6.0,14.0,80,0.00,,---,0.09,47.00,VWS V14.01,2013-10-07 19:00:00,
2013-10-07 12:05:00,54.5,48.1,29.96,SSW,202,13.0,15.0,79,0.00,,---,0.09,56.00,VWS V14.01,2013-10-07 19:05:00,
2013-10-07 12:10:00,54.5,48.5,29.96,WSW,239,4.0,15.0,80,0.00,,---,0.09,72.00,VWS V14.01,2013-10-07 19:10:00,
2013-10-07 12:15:00,54.6,48.2,29.96,SW,224,7.0,15.0,79,0.00,,---,0.09,72.00,VWS V14.01,2013-10-07 19:15:00,
2013-10-07 12:20:00,54.6,48.2,29.97,WSW,249,5.0,15.0,79,0.00,,---,0.09,83.00,VWS V14.01,2013-10-07 19:20:00,
2013-10-07 12:25:00,54.8,48.4,29.97,SW,223,8.0,15.0,79,0.00,,---,0.09,60.00,VWS V14.01,2013-10-07 19:25:00,
2013-10-07 12:30:00,55.0,48.6,29.97,SW,220,7.0,11.0,79,0.00,,---,0.09,104.00,VWS V14.01,2013-10-07 19:30:00,
2013-10-07 12:35:00,55.2,48.5,29.97,SW,229,7.0,14.0,78,0.00,,---,0.09,137.00,VWS V14.01,2013-10-07 19:35:00,
2013-10-07 12:40:00,55.6,48.5,29.97,SSW,210,6.0,14.0,77,0.01,,---,0.10,93.00,VWS V14.01,2013-10-07 19:40:00,
2013-10-07 12:45:00,55.8,48.0,29.97,WSW,256,4.0,15.0,75,0.01,,---,0.10,69.00,VWS V14.01,2013-10-07 19:45:00,
2013-10-07 12:50:00,56.1,48.7,29.96,WSW,245,6.0,15.0,76,0.01,,---,0.10,113.00,VWS V14.01,2013-10-07 19:50:00,
2013-10-07 12:55:00,56.4,47.9,29.96,SW,218,7.0,16.0,73,0.01,,---,0.10,62.00,VWS V14.01,2013-10-07 19:55:00,
2013-10-07 13:00:00,56.4,47.9,29.96,West,269,3.0,16.0,73,0.01,,---,0.10,54.00,VWS V14.01,2013-10-07 20:00:00,
2013-10-07 13:05:00,56.5,48.0,29.96,SSW,192,4.0,16.0,73,0.01,,---,0.10,86.00,VWS V14.01,2013-10-07 20:05:00,
2013-10-07 13:10:00,56.8,48.2,29.96,SW,219,8.0,16.0,73,0.01,,---,0.10,30.00,VWS V14.01,2013-10-07 20:10:00,
2013-10-07 13:15:00,57.1,48.2,29.96,SW,227,5.0,16.0,72,0.01,,---,0.10,32.00,VWS V14.01,2013-10-07 20:15:00,
2013-10-07 13:20:00,57.5,48.2,29.96,SSW,199,10.0,18.0,71,0.01,,---,0.10,33.00,VWS V14.01,2013-10-07 20:20:00,
2013-10-07 13:25:00,57.8,48.1,29.96,WSW,245,10.0,18.0,70,0.01,,---,0.10,51.00,VWS V14.01,2013-10-07 20:25:00,
2013-10-07 13:30:00,58.0,47.5,29.95,WSW,239,8.0,18.0,68,0.01,,---,0.10,62.00,VWS V14.01,2013-10-07 20:30:00,
2013-10-07 13:35:00,58.4,47.1,29.95,SW,235,4.0,18.0,66,0.01,,---,0.10,84.00,VWS V14.01,2013-10-07 20:35:00,
2013-10-07 13:40:00,59.0,47.7,29.95,SSW,207,12.0,18.0,66,0.01,,---,0.10,91.00,VWS V14.01,2013-10-07 20:40:00,
2013-10-07 13:45:00,59.0,47.3,29.95,SW,218,11.0,18.0,65,0.01,,---,0.10,58.00,VWS V14.01,2013-10-07 20:45:00,
2013-10-07 13:50:00,59.0,47.3,29.95,SW,235,12.0,18.0,65,0.01,,---,0.10,33.00,VWS V14.01,2013-10-07 20:50:00,
2013-10-07 13:55:00,59.1,47.0,29.95,West,274,4.0,18.0,64,0.01,,---,0.10,30.00,VWS V14.01,2013-10-07 20:55:00,
2013-10-07 14:00:00,59.2,46.6,29.95,West,269,7.0,10.0,63,0.00,,---,0.10,35.00,VWS V14.01,2013-10-07 21:00:00,
2013-10-07 14:05:00,59.4,47.2,29.95,SSW,202,11.0,13.0,64,0.00,,---,0.10,44.00,VWS V14.01,2013-10-07 21:05:00,
2013-10-07 14:10:00,59.5,46.9,29.95,SW,225,9.0,18.0,63,0.00,,---,0.10,84.00,VWS V14.01,2013-10-07 21:10:00,
2013-10-07 14:15:00,59.3,47.1,29.95,WSW,239,14.0,18.0,64,0.00,,---,0.10,77.00,VWS V14.01,2013-10-07 21:15:00,
2013-10-07 14:20:00,59.0,46.8,29.95,West,279,5.0,18.0,64,0.00,,---,0.10,79.00,VWS V14.01,2013-10-07 21:20:00,
2013-10-07 14:25:00,58.8,47.9,29.95,WSW,244,5.0,18.0,67,0.00,,---,0.10,114.00,VWS V14.01,2013-10-07 21:25:00,
2013-10-07 14:30:00,58.8,47.5,29.95,WSW,244,11.0,14.0,66,0.00,,---,0.10,81.00,VWS V14.01,2013-10-07 21:30:00,
2013-10-07 14:35:00,58.7,47.4,29.95,SSW,211,9.0,18.0,66,0.00,,---,0.10,84.00,VWS V14.01,2013-10-07 21:35:00,
2013-10-07 14:40:00,58.6,47.3,29.95,WSW,242,8.0,18.0,66,0.00,,---,0.10,53.00,VWS V14.01,2013-10-07 21:40:00,
2013-10-07 14:45:00,58.4,47.1,29.95,SW,216,6.0,18.0,66,0.00,,---,0.10,49.00,VWS V14.01,2013-10-07 21:45:00,
2013-10-07 14:50:00,58.4,47.5,29.95,SW,233,14.0,18.0,67,0.00,,---,0.10,47.00,VWS V14.01,2013-10-07 21:50:00,
2013-10-07 14:55:00,59.0,48.1,29.95,SW,234,7.0,22.0,67,0.00,,---,0.10,58.00,VWS V14.01,2013-10-07 21:55:00,
2013-10-07 15:00:00,59.0,47.7,29.95,WNW,288,4.0,20.0,66,0.00,,---,0.10,21.00,VWS V14.01,2013-10-07 22:00:00,
2013-10-07 15:05:00,59.0,47.3,29.95,WSW,248,8.0,20.0,65,0.00,,---,0.10,26.00,VWS V14.01,2013-10-07 22:05:00,
2013-10-07 15:10:00,59.0,46.8,29.95,WSW,239,14.0,20.0,64,0.00,,---,0.10,25.00,VWS V14.01,2013-10-07 22:10:00,
2013-10-07 15:15:00,59.2,47.0,29.95,WSW,245,7.0,20.0,64,0.00,,---,0.10,25.00,VWS V14.01,2013-10-07 22:15:00,
2013-10-07 15:20:00,59.3,46.7,29.95,WSW,256,16.0,20.0,63,0.00,,---,0.10,19.00,VWS V14.01,2013-10-07 22:20:00,
2013-10-07 15:25:00,59.0,46.8,29.95,West,262,8.0,20.0,64,0.00,,---,0.10,28.00,VWS V14.01,2013-10-07 22:25:00,
2013-10-07 15:30:00,59.0,46.4,29.96,SW,231,14.0,16.0,63,0.00,,---,0.10,28.00,VWS V14.01,2013-10-07 22:30:00,
2013-10-07 15:35:00,58.5,46.4,29.96,WSW,243,7.0,18.0,64,0.00,,---,0.10,35.00,VWS V14.01,2013-10-07 22:35:00,
2013-10-07 15:40:00,58.3,45.3,29.96,West,269,13.0,18.0,62,0.00,,---,0.10,30.00,VWS V14.01,2013-10-07 22:40:00,
2013-10-07 15:45:00,58.4,45.9,29.96,WSW,250,7.0,18.0,63,0.00,,---,0.10,25.00,VWS V14.01,2013-10-07 22:45:00,
2013-10-07 15:50:00,58.5,45.5,29.96,WSW,256,7.0,18.0,62,0.00,,---,0.10,25.00,VWS V14.01,2013-10-07 22:50:00,
2013-10-07 15:55:00,58.6,45.6,29.96,WSW,250,7.0,18.0,62,0.00,,---,0.10,25.00,VWS V14.01,2013-10-07 22:55:00,
2013-10-07 16:00:00,58.7,44.9,29.96,WSW,254,15.0,15.0,60,0.00,,---,0.10,26.00,VWS V14.01,2013-10-07 23:00:00,
2013-10-07 16:05:00,58.9,45.9,29.96,SSW,202,10.0,16.0,62,0.00,,---,0.10,25.00,VWS V14.01,2013-10-07 23:05:00,
2013-10-07 16:10:00,58.9,46.3,29.96,West,260,6.0,16.0,63,0.00,,---,0.10,21.00,VWS V14.01,2013-10-07 23:10:00,
2013-10-07 16:15:00,58.9,45.9,29.96,WSW,255,5.0,16.0,62,0.00,,---,0.10,14.00,VWS V14.01,2013-10-07 23:15:00,
2013-10-07 16:20:00,58.6,46.1,29.97,WSW,250,7.0,16.0,63,0.00,,---,0.10,21.00,VWS V14.01,2013-10-07 23:20:00,
2013-10-07 16:25:00,58.5,45.5,29.97,WSW,241,4.0,16.0,62,0.00,,---,0.10,12.00,VWS V14.01,2013-10-07 23:25:00,
2013-10-07 16:30:00,58.4,45.5,29.97,WSW,238,13.0,16.0,62,0.00,,---,0.10,18.00,VWS V14.01,2013-10-07 23:30:00,
2013-10-07 16:35:00,58.2,45.3,29.97,WSW,237,9.0,16.0,62,0.00,,---,0.10,18.00,VWS V14.01,2013-10-07 23:35:00,
2013-10-07 16:40:00,58.1,45.6,29.97,WSW,255,4.0,16.0,63,0.00,,---,0.10,21.00,VWS V14.01,2013-10-07 23:40:00,
2013-10-07 16:45:00,57.9,46.2,29.97,WSW,252,4.0,16.0,65,0.00,,---,0.10,21.00,VWS V14.01,2013-10-07 23:45:00,
2013-10-07 16:50:00,57.6,45.9,29.98,SSW,199,6.0,16.0,65,0.00,,---,0.10,25.00,VWS V14.01,2013-10-07 23:50:00,
2013-10-07 16:55:00,57.3,46.0,29.97,SW,220,4.0,16.0,66,0.00,,---,0.10,25.00,VWS V14.01,2013-10-07 23:55:00,
2013-10-07 17:00:00,57.0,45.8,29.97,SW,231,7.0,14.0,66,0.00,,---,0.10,25.00,VWS V14.01,2013-10-08 00:00:00,
2013-10-07 17:05:00,56.8,46.4,29.97,WSW,242,7.0,14.0,68,0.00,,---,0.10,23.00,VWS V14.01,2013-10-08 00:05:00,
2013-10-07 17:10:00,56.7,46.3,29.97,WSW,239,8.0,14.0,68,0.00,,---,0.10,23.00,VWS V14.01,2013-10-08 00:10:00,
2013-10-07 17:15:00,56.7,46.7,29.97,WSW,240,2.0,15.0,69,0.00,,---,0.10,21.00,VWS V14.01,2013-10-08 00:15:00,
2013-10-07 17:20:00,56.6,46.6,29.97,WSW,250,6.0,15.0,69,0.00,,---,0.10,18.00,VWS V14.01,2013-10-08 00:20:00,
2013-10-07 17:25:00,56.5,46.1,29.97,SW,236,11.0,15.0,68,0.00,,---,0.10,19.00,VWS V14.01,2013-10-08 00:25:00,
2013-10-07 17:30:00,56.4,45.2,29.97,West,261,9.0,16.0,66,0.00,,---,0.10,16.00,VWS V14.01,2013-10-08 00:30:00,
2013-10-07 17:35:00,56.3,45.1,29.97,WSW,251,9.0,16.0,66,0.00,,---,0.10,12.00,VWS V14.01,2013-10-08 00:35:00,
2013-10-07 17:40:00,56.1,44.5,29.97,WSW,256,6.0,18.0,65,0.00,,---,0.10,9.00,VWS V14.01,2013-10-08 00:40:00,
2013-10-07 17:45:00,55.9,44.7,29.98,WSW,237,11.0,18.0,66,0.00,,---,0.10,7.00,VWS V14.01,2013-10-08 00:45:00,
2013-10-07 17:50:00,55.8,45.0,29.98,SW,223,9.0,18.0,67,0.00,,---,0.10,11.00,VWS V14.01,2013-10-08 00:50:00,
2013-10-07 17:55:00,55.6,45.2,29.98,WSW,252,8.0,18.0,68,0.00,,---,0.10,16.00,VWS V14.01,2013-10-08 00:55:00,
2013-10-07 18:00:00,55.6,45.6,29.97,WSW,255,4.0,14.0,69,0.00,,---,0.10,14.00,VWS V14.01,2013-10-08 01:00:00,
2013-10-07 18:05:00,55.5,45.5,29.97,SSW,208,10.0,15.0,69,0.00,,---,0.10,9.00,VWS V14.01,2013-10-08 01:05:00,
2013-10-07 18:10:00,55.4,45.4,29.98,SW,216,10.0,15.0,69,0.00,,---,0.10,5.00,VWS V14.01,2013-10-08 01:10:00,
2013-10-07 18:15:00,55.2,45.6,29.98,SW,225,4.0,15.0,70,0.00,,---,0.10,5.00,VWS V14.01,2013-10-08 01:15:00,
2013-10-07 18:20:00,55.1,45.5,29.97,SW,219,6.0,15.0,70,0.00,,---,0.10,0.00,VWS V14.01,2013-10-08 01:20:00,
2013-10-07 18:25:00,55.0,45.4,29.97,SW,217,8.0,15.0,70,0.00,,---,0.10,0.00,VWS V14.01,2013-10-08 01:25:00,
2013-10-07 18:30:00,54.9,45.7,29.98,SW,223,8.0,12.0,71,0.00,,---,0.10,0.00,VWS V14.01,2013-10-08 01:30:00,
2013-10-07 18:35:00,54.8,46.0,29.98,SW,218,4.0,12.0,72,0.00,,---,0.10,0.00,VWS V14.01,2013-10-08 01:35:00,
2013-10-07 18:40:00,54.6,45.8,29.98,WSW,243,12.0,12.0,72,0.00,,---,0.10,0.00,VWS V14.01,2013-10-08 01:40:00,
2013-10-07 18:45:00,54.5,45.7,29.98,SSW,210,8.0,12.0,72,0.00,,---,0.10,0.00,VWS V14.01,2013-10-08 01:45:00,
2013-10-07 18:50:00,54.5,46.0,29.98,WSW,258,6.0,13.0,73,0.00,,---,0.10,0.00,VWS V14.01,2013-10-08 01:50:00,
2013-10-07 18:55:00,54.4,45.9,29.98,WSW,237,10.0,14.0,73,0.00,,---,0.10,0.00,VWS V14.01,2013-10-08 01:55:00,
2013-10-07 19:00:00,54.4,45.9,29.98,West,274,8.0,14.0,73,0.00,,---,0.10,0.00,VWS V14.01,2013-10-08 02:00:00,
2013-10-07 19:05:00,54.3,45.8,29.98,WNW,290,7.0,16.0,73,0.00,,---,0.10,0.00,VWS V14.01,2013-10-08 02:05:00,
2013-10-07 19:10:00,54.3,45.8,29.98,SW,231,7.0,16.0,73,0.00,,---,0.10,0.00,VWS V14.01,2013-10-08 02:10:00,
2013-10-07 19:15:00,54.2,46.1,29.98,WSW,237,10.0,16.0,74,0.00,,---,0.10,0.00,VWS V14.01,2013-10-08 02:15:00,
2013-10-07 19:20:00,54.2,46.1,29.99,WSW,241,13.0,16.0,74,0.00,,---,0.10,0.00,VWS V14.01,2013-10-08 02:20:00,
2013-10-07 19:25:00,54.1,46.0,29.99,SW,232,8.0,16.0,74,0.00,,---,0.10,0.00,VWS V14.01,2013-10-08 02:25:00,
2013-10-07 19:30:00,54.1,46.0,29.98,SW,214,7.0,14.0,74,0.00,,---,0.10,0.00,VWS V14.01,2013-10-08 02:30:00,
2013-10-07 19:35:00,54.0,45.9,29.99,WSW,250,5.0,14.0,74,0.00,,---,0.10,0.00,VWS V14.01,2013-10-08 02:35:00,
2013-10-07 19:40:00,54.0,45.9,29.98,SSW,206,9.0,14.0,74,0.00,,---,0.10,0.00,VWS V14.01,2013-10-08 02:40:00,
2013-10-07 19:45:00,53.9,45.8,29.99,SW,236,8.0,14.0,74,0.00,,---,0.10,0.00,VWS V14.01,2013-10-08 02:45:00,
2013-10-07 19:50:00,53.9,45.8,29.98,WSW,241,6.0,14.0,74,0.00,,---,0.10,0.00,VWS V14.01,2013-10-08 02:50:00,
2013-10-07 19:55:00,53.8,45.7,29.99,WSW,243,7.0,14.0,74,0.00,,---,0.10,0.00,VWS V14.01,2013-10-08 02:55:00,
2013-10-07 20:00:00,53.8,45.4,29.99,SW,235,11.0,15.0,73,0.00,,---,0.10,0.00,VWS V14.01,2013-10-08 03:00:00,
2013-10-07 20:05:00,53.7,45.6,29.99,WSW,241,7.0,15.0,74,0.00,,---,0.10,0.00,VWS V14.01,2013-10-08 03:05:00,
2013-10-07 20:10:00,53.7,45.6,29.99,WSW,247,11.0,15.0,74,0.00,,---,0.10,0.00,VWS V14.01,2013-10-08 03:10:00,
2013-10-07 20:15:00,53.7,45.6,29.99,WSW,238,6.0,15.0,74,0.00,,---,0.10,0.00,VWS V14.01,2013-10-08 03:15:00,
2013-10-07 20:20:00,53.7,46.3,29.99,WSW,242,9.0,15.0,76,0.00,,---,0.10,0.00,VWS V14.01,2013-10-08 03:20:00,
2013-10-07 20:25:00,53.6,46.9,29.99,SW,235,6.0,15.0,78,0.00,,---,0.10,0.00,VWS V14.01,2013-10-08 03:25:00,
2013-10-07 20:30:00,53.5,47.2,29.99,SSW,210,1.0,13.0,79,0.00,,---,0.10,0.00,VWS V14.01,2013-10-08 03:30:00,
2013-10-07 20:35:00,53.3,47.3,29.99,WSW,240,10.0,13.0,80,0.00,,---,0.10,0.00,VWS V14.01,2013-10-08 03:35:00,
2013-10-07 20:40:00,53.2,47.2,29.99,SW,225,7.0,13.0,80,0.00,,---,0.10,0.00,VWS V14.01,2013-10-08 03:40:00,
2013-10-07 20:45:00,53.1,47.1,29.99,WSW,254,7.0,13.0,80,0.00,,---,0.10,0.00,VWS V14.01,2013-10-08 03:45:00,
2013-10-07 20:50:00,53.0,47.0,29.99,SW,219,6.0,13.0,80,0.00,,---,0.10,0.00,VWS V14.01,2013-10-08 03:50:00,
2013-10-07 20:55:00,53.0,47.0,29.99,SW,235,5.0,13.0,80,0.00,,---,0.10,0.00,VWS V14.01,2013-10-08 03:55:00,
2013-10-07 21:00:00,53.0,47.3,29.99,West,279,7.0,18.0,81,0.00,,---,0.10,0.00,VWS V14.01,2013-10-08 04:00:00,
2013-10-07 21:01:00,53.0,47.3,29.99,WSW,239,4.0,18.0,81,0.00,,---,0.10,0.00,VWS V14.01,2013-10-08 04:01:00,
2013-10-07 21:06:00,53.0,47.3,29.99,West,259,7.0,18.0,81,0.00,,---,0.10,0.00,VWS V14.01,2013-10-08 04:06:00,
2013-10-07 21:11:00,53.0,47.3,29.99,WSW,243,7.0,18.0,81,0.00,,---,0.10,0.00,VWS V14.01,2013-10-08 04:11:00,
2013-10-07 21:16:00,53.0,47.0,29.99,WSW,241,4.0,18.0,80,0.00,,---,0.10,0.00,VWS V14.01,2013-10-08 04:16:00,
2013-10-07 21:21:00,53.0,47.0,29.99,SW,235,5.0,18.0,80,0.00,,---,0.10,0.00,VWS V14.01,2013-10-08 04:21:00,
2013-10-07 21:26:00,53.0,47.0,29.99,West,264,10.0,10.0,80,0.00,,---,0.10,0.00,VWS V14.01,2013-10-08 04:26:00,
2013-10-07 21:30:00,53.1,47.1,29.99,WSW,241,8.0,18.0,80,0.00,,---,0.10,0.00,VWS V14.01,2013-10-08 04:30:00,
2013-10-07 21:31:00,53.0,47.0,29.99,WSW,244,5.0,12.0,80,0.00,,---,0.10,0.00,VWS V14.01,2013-10-08 04:31:00,
2013-10-07 21:36:00,53.0,47.0,29.99,SW,215,5.0,12.0,80,0.00,,---,0.10,0.00,VWS V14.01,2013-10-08 04:36:00,
2013-10-07 21:41:00,53.0,47.0,30.00,WSW,257,5.0,12.0,80,0.00,,---,0.10,0.00,VWS V14.01,2013-10-08 04:41:00,
2013-10-07 21:46:00,53.0,47.0,30.00,WSW,239,8.0,12.0,80,0.00,,---,0.10,0.00,VWS V14.01,2013-10-08 04:46:00,
2013-10-07 21:51:00,53.0,47.0,29.99,West,260,1.0,13.0,80,0.00,,---,0.10,0.00,VWS V14.01,2013-10-08 04:51:00,
2013-10-07 21:56:00,53.0,47.0,29.99,SSW,210,6.0,8.0,80,0.00,,---,0.10,0.00,VWS V14.01,2013-10-08 04:56:00,
2013-10-07 22:00:00,53.0,47.0,29.99,SSW,212,6.0,13.0,80,0.00,,---,0.10,0.00,VWS V14.01,2013-10-08 05:00:00,
2013-10-07 22:01:00,52.9,46.9,29.99,SW,233,5.0,10.0,80,0.00,,---,0.10,0.00,VWS V14.01,2013-10-08 05:01:00,
2013-10-07 22:06:00,52.9,46.9,29.99,WNW,283,1.0,12.0,80,0.00,,---,0.10,0.00,VWS V14.01,2013-10-08 05:06:00,
2013-10-07 22:11:00,52.9,46.9,29.99,SW,232,8.0,12.0,80,0.00,,---,0.10,0.00,VWS V14.01,2013-10-08 05:11:00,
2013-10-07 22:16:00,52.8,46.8,30.00,WSW,256,6.0,12.0,80,0.00,,---,0.10,0.00,VWS V14.01,2013-10-08 05:16:00,
2013-10-07 22:21:00,52.8,46.8,30.00,SW,228,9.0,12.0,80,0.00,,---,0.10,0.00,VWS V14.01,2013-10-08 05:21:00,
2013-10-07 22:26:00,52.7,46.7,30.00,WSW,239,7.0,9.0,80,0.00,,---,0.10,0.00,VWS V14.01,2013-10-08 05:26:00,
2013-10-07 22:30:00,52.7,46.7,30.00,WSW,242,4.0,18.0,80,0.00,,---,0.10,0.00,VWS V14.01,2013-10-08 05:30:00,
2013-10-07 22:31:00,52.6,46.6,30.00,WSW,245,5.0,12.0,80,0.00,,---,0.10,0.00,VWS V14.01,2013-10-08 05:31:00,
2013-10-07 22:36:00,52.6,46.6,29.99,West,279,5.0,12.0,80,0.00,,---,0.10,0.00,VWS V14.01,2013-10-08 05:36:00,
2013-10-07 22:41:00,52.5,46.5,30.00,WSW,245,5.0,15.0,80,0.00,,---,0.10,0.00,VWS V14.01,2013-10-08 05:41:00,
2013-10-07 22:46:00,52.5,46.5,30.00,WSW,255,5.0,15.0,80,0.00,,---,0.10,0.00,VWS V14.01,2013-10-08 05:46:00,
2013-10-07 22:51:00,52.4,46.4,30.00,WSW,239,6.0,15.0,80,0.00,,---,0.10,0.00,VWS V14.01,2013-10-08 05:51:00,
2013-10-07 22:57:00,52.4,46.8,30.00,WSW,241,13.0,13.0,81,0.00,,---,0.10,0.00,VWS V14.01,2013-10-08 05:57:00,
2013-10-07 23:00:00,52.4,46.4,30.00,West,274,6.0,15.0,80,0.00,,---,0.10,0.00,VWS V14.01,2013-10-08 06:00:00,
2013-10-07 23:04:00,52.4,46.4,30.00,WSW,239,6.0,13.0,80,0.00,,---,0.10,0.00,VWS V14.01,2013-10-08 06:04:00,
2013-10-07 23:09:00,52.3,46.3,30.00,WSW,255,6.0,13.0,80,0.00,,---,0.10,0.00,VWS V14.01,2013-10-08 06:09:00,
2013-10-07 23:16:00,52.3,46.7,30.00,West,269,7.0,13.0,81,0.00,,---,0.10,0.00,VWS V14.01,2013-10-08 06:16:00,
2013-10-07 23:21:00,52.3,46.7,30.00,WSW,245,8.0,13.0,81,0.00,,---,0.10,0.00,VWS V14.01,2013-10-08 06:21:00,
2013-10-07 23:26:00,52.3,46.7,30.00,West,274,4.0,9.0,81,0.00,,---,0.10,0.00,VWS V14.01,2013-10-08 06:26:00,
2013-10-07 23:30:00,52.3,46.7,30.00,WSW,244,9.0,13.0,81,0.00,,---,0.10,0.00,VWS V14.01,2013-10-08 06:30:00,
2013-10-07 23:32:00,52.3,46.7,30.00,WSW,237,4.0,14.0,81,0.00,,---,0.10,0.00,VWS V14.01,2013-10-08 06:32:00,
2013-10-07 23:37:00,52.2,46.2,30.00,West,269,7.0,14.0,80,0.00,,---,0.10,0.00,VWS V14.01,2013-10-08 06:37:00,
2013-10-07 23:45:00,52.1,46.1,30.00,SW,235,8.0,14.0,80,0.00,,---,0.10,0.00,VWS V14.01,2013-10-08 06:45:00,
2013-10-07 23:52:00,52.0,46.4,30.00,SW,235,1.0,14.0,81,0.00,,---,0.10,0.00,VWS V14.01,2013-10-08 06:52:00,
2013-10-07 23:58:00,52.0,46.4,30.00,WSW,241,5.0,9.0,81,0.00,,---,0.00,0.00,VWS V14.01,2013-10-08 06:58:00,